Location: Gönnheim
(49.4488°N, 8.2383°E)
Time: 17:43:14
(UTC+00:00)

SL-24 R/B - Pass Details

Date: 19 May 2025
Orbit: 594 x 1187 km, 97.8° (Epoch: 17 June)

Event Time Altitude Azimuth Distance (km) Brightness Sun altitude
Exits shadow 20:30:51 14° 156° (SSE) 1,710 6.2 -10.7°
Maximum altitude 20:34:24 71° 74° (ENE) 633 4.5 -11.1°
Drops below altitude 10° 20:38:33 10° 350° (N) 1,960 8.1 -11.5°
Sets 20:40:46 0° 349° (NNW) 2,899 9.2 -11.8°
